CW4588 Weather Reports


Display with metric or nautical units.
time (UTC)temp
F
wind
direction
speed
MPH
gust
MPH
rain 1hr
in
rain 24hr
in
rain mn
in
humidity
%
barometer
mb
20210418090112 61 223 2.0 0.0 0.00 0.00 0.00 28 1029.2
20210418085256 61 160 0.0 0.0 0.00 0.00 0.00 29 1029.2
20210418084055 60 136 0.0 0.0 0.00 0.00 0.00 30 1029.4
20210418083059 60 160 0.0 0.0 0.00 0.00 0.00 30 1029.4
20210418082130 60 147 0.0 0.0 0.00 0.00 0.00 30 1029.4
20210418081100 59 141 0.0 0.0 0.00 0.00 0.00 33 1029.5
20210418080157 59 134 0.0 0.0 0.00 0.00 0.00 31 1029.6
20210418075436 58 134 0.0 0.0 0.00 0.00 0.00 35 1029.6
20210418074040 58 134 0.0 0.0 0.00 0.00 0.00 37 1029.7
20210418073052 57 134 0.0 0.0 0.00 0.00 0.00 37 1029.7
20210418072231 56 131 0.0 0.0 0.00 0.00 0.00 36 1029.7
20210418071100 56 72 0.0 0.0 0.00 0.00 0.00 38 1029.7
20210418070052 55 72 0.0 0.0 0.00 0.00 0.00 39 1029.6
20210418065337 54 72 0.0 0.0 0.00 0.00 0.00 44 1029.6
20210418064045 53 72 0.0 0.0 0.00 0.00 0.00 45 1029.7
20210418063055 52 72 0.0 0.0 0.00 0.00 0.00 45 1029.8
20210418062259 50 72 0.0 0.0 0.00 0.00 0.00 47 1029.8
20210418061040 49 72 0.0 0.0 0.00 0.00 0.00 47 1029.6
20210418060158 48 72 0.0 0.0 0.00 0.00 0.00 52 1029.7
20210418055514 46 72 0.0 0.0 0.00 0.00 0.00 55 1029.7
20210418054045 44 44 0.0 0.0 0.00 0.00 0.00 59 1029.7
20210418053101 42 10 0.0 0.0 0.00 0.00 0.00 63 1029.7
20210418052428 40 10 0.0 0.0 0.00 0.00 0.00 69 1029.7
20210418051037 38 10 0.0 0.0 0.00 0.00 0.00 76 1029.7
20210418050120 35 10 0.0 0.0 0.00 0.00 0.00 88 1029.7
20210418045255 32 10 0.0 0.0 0.00 0.00 0.00 94 1029.7
20210418044035 29 10 0.0 0.0 0.00 0.00 0.00 94 1029.8
20210418043054 29 10 0.0 0.0 0.00 0.00 0.00 93 1029.7
20210418042523 28 10 0.0 0.0 0.00 0.00 0.00 93 1029.7
20210418041102 28 10 0.0 0.0 0.00 0.00 0.00 94 1029.6
20210418040044 28 10 0.0 0.0 0.00 0.00 0.00 94 1029.6
20210418035344 27 10 0.0 0.0 0.00 0.00 0.00 93 1029.6
20210418034050 26 10 0.0 0.0 0.00 0.00 0.00 93 1029.6
20210418033120 26 10 0.0 0.0 0.00 0.00 0.00 92 1029.6
20210418032556 26 10 0.0 0.0 0.00 0.00 0.00 92 1029.6
20210418031040 26 10 0.0 0.0 0.00 0.00 0.00 92 1029.6
20210418030247 26 10 0.0 0.0 0.00 0.00 0.00 92 1029.7
20210418025436 26 10 0.0 0.0 0.00 0.00 0.00 92 1029.7
20210418024049 26 10 0.0 0.0 0.00 0.00 0.00 92 1029.7
20210418023058 26 10 0.0 0.0 0.00 0.00 0.00 91 1029.8
20210418022135 26 10 0.0 0.0 0.00 0.00 0.00 91 1029.8
20210418021055 27 10 0.0 0.0 0.00 0.00 0.00 91 1029.8
20210418020054 27 10 0.0 0.0 0.00 0.00 0.00 91 1029.9
20210418015442 27 10 0.0 0.0 0.00 0.00 0.00 91 1029.9
20210418014041 27 10 0.0 0.0 0.00 0.00 0.00 91 1029.7
20210418013256 27 10 0.0 0.0 0.00 0.00 0.00 91 1029.7
20210418012451 28 10 0.0 0.0 0.00 0.00 0.00 91 1029.7
20210418011109 28 10 0.0 0.0 0.00 0.00 0.00 90 1029.7
20210418010056 28 10 0.0 0.0 0.00 0.00 0.00 90 1029.7
20210418005332 28 10 0.0 0.0 0.00 0.00 0.00 89 1029.7
20210418004051 28 10 0.0 0.0 0.00 0.00 0.00 89 1029.6
20210418003109 29 10 0.0 0.0 0.00 0.00 0.00 88 1029.6
20210418002429 29 10 0.0 0.0 0.00 0.00 0.00 88 1029.6
20210418001053 29 10 0.0 0.0 0.00 0.00 0.00 88 1029.6
20210418000101 29 10 0.0 0.0 0.00 0.00 0.00 88 1029.6
20210417235450 30 10 0.0 0.0 0.00 0.00 0.00 87 1029.6
20210417234048 30 10 0.0 0.0 0.00 0.00 0.00 87 1029.7
20210417233045 30 10 0.0 0.0 0.00 0.00 0.00 87 1029.7
20210417232240 30 10 0.0 0.0 0.00 0.00 0.00 86 1029.7
20210417231038 31 10 0.0 0.0 0.00 0.00 0.00 86 1029.8
20210417230119 31 10 0.0 0.0 0.00 0.00 0.00 85 1029.7
20210417225334 31 10 0.0 0.0 0.00 0.00 0.00 85 1029.7
20210417224054 32 10 0.0 0.0 0.00 0.00 0.00 84 1029.7
20210417223110 32 10 0.0 0.0 0.00 0.00 0.00 84 1029.7
20210417222551 32 10 0.0 0.0 0.00 0.00 0.00 83 1029.7
20210417221041 33 10 0.0 0.0 0.00 0.00 0.00 83 1029.7
20210417220043 33 10 0.0 0.0 0.00 0.00 0.00 82 1029.6
20210417215141 33 10 0.0 0.0 0.00 0.00 0.00 81 1029.6
20210417214039 34 10 0.0 0.0 0.00 0.00 0.00 81 1029.5
20210417213048 34 10 0.0 0.0 0.00 0.00 0.00 80 1029.5
20210417212247 35 10 0.0 0.0 0.00 0.00 0.00 79 1029.5
20210417211050 35 10 0.0 0.0 0.00 0.00 0.00 78 1029.3
20210417210144 36 10 0.0 0.0 0.00 0.00 0.00 77 1029.2
20210417205352 36 10 0.0 0.0 0.00 0.00 0.00 76 1029.2
20210417204108 37 10 0.0 0.0 0.00 0.00 0.00 76 1029.2
20210417203101 37 10 0.0 0.0 0.00 0.00 0.00 74 1029.2
20210417202300 38 10 0.0 0.0 0.00 0.00 0.00 74 1029.2
20210417201038 39 10 0.0 0.0 0.00 0.00 0.00 72 1029.2
20210417200104 39 10 0.0 0.0 0.00 0.00 0.00 72 1029.2
20210417195259 40 10 0.0 0.0 0.00 0.00 0.00 70 1029.2
20210417194057 41 10 0.0 0.0 0.00 0.00 0.00 69 1029.2
20210417193051 42 10 0.0 0.0 0.00 0.00 0.00 67 1029.1
20210417192300 42 10 0.0 0.0 0.00 0.00 0.00 66 1029.1
20210417191055 43 10 0.0 0.0 0.00 0.00 0.00 64 1029.1
20210417190046 45 10 0.0 0.0 0.00 0.00 0.00 62 1029.1
20210417185301 46 10 0.0 0.0 0.00 0.00 0.00 59 1029.1
20210417184046 47 10 0.0 0.0 0.00 0.00 0.00 57 1028.9
20210417183039 49 10 0.0 0.0 0.00 0.00 0.00 53 1028.8
20210417182433 50 10 0.0 0.0 0.00 0.00 0.00 51 1028.8
20210417181053 51 10 0.0 0.0 0.00 0.00 0.00 47 1028.7
20210417180047 53 10 0.0 0.0 0.00 0.00 0.00 43 1028.6
20210417175353 54 10 0.0 0.0 0.00 0.00 0.00 41 1028.6
20210417174048 54 10 0.0 0.0 0.00 0.00 0.00 41 1028.6
20210417173054 55 10 0.0 0.0 0.00 0.00 0.00 40 1028.5
20210417172251 55 8 0.0 0.0 0.00 0.00 0.00 39 1028.5
20210417171041 56 360 0.0 0.0 0.00 0.00 0.00 39 1028.5
20210417170043 57 360 0.0 0.0 0.00 0.00 0.00 38 1028.3
20210417165356 57 360 0.0 0.0 0.00 0.00 0.00 37 1028.3
20210417164051 58 360 2.0 0.0 0.00 0.00 0.00 36 1028.3
20210417163034 58 6 2.0 0.0 0.00 0.00 0.00 35 1028.3
20210417161029 59 360 3.0 0.0 0.00 0.00 0.00 32 1028.4
20210417160035 60 353 4.0 0.0 0.00 0.00 0.00 32 1028.5
20210417155159 60 360 3.0 0.0 0.00 0.00 0.00 32 1028.5
20210417154034 59 360 4.0 0.0 0.00 0.00 0.00 32 1028.5
20210417153045 59 16 2.0 0.0 0.00 0.00 0.00 33 1028.6
20210417152244 59 8 6.0 0.0 0.00 0.00 0.00 32 1028.6
20210417151032 60 360 5.0 0.0 0.00 0.00 0.00 33 1028.7
20210417150038 60 360 2.0 0.0 0.00 0.00 0.00 31 1028.8
20210417145233 60 356 3.0 0.0 0.00 0.00 0.00 31 1028.8
20210417144038 60 20 2.0 0.0 0.00 0.00 0.00 32 1028.9
20210417143032 60 10 3.0 0.0 0.00 0.00 0.00 31 1029.1
20210417142419 60 353 2.0 0.0 0.00 0.00 0.00 31 1029.1
20210417141046 61 3 5.0 0.0 0.00 0.00 0.00 31 1029.1
20210417140045 62 349 7.0 0.0 0.00 0.00 0.00 30 1029.2
20210417135323 63 360 3.0 0.0 0.00 0.00 0.00 29 1029.2
20210417134035 62 11 2.0 0.0 0.00 0.00 0.00 29 1029.3
20210417133100 63 344 2.0 0.0 0.00 0.00 0.00 28 1029.4
20210417132257 62 64 2.0 0.0 0.00 0.00 0.00 27 1029.4
20210417131025 63 102 0.0 0.0 0.00 0.00 0.00 28 1029.5
20210417130053 63 198 2.0 0.0 0.00 0.00 0.00 27 1029.7
20210417125217 63 353 2.0 0.0 0.00 0.00 0.00 28 1029.7
20210417124022 63 357 1.0 0.0 0.00 0.00 0.00 28 1029.7
20210417123040 63 356 2.0 0.0 0.00 0.00 0.00 29 1029.9
20210417122511 62 48 1.0 0.0 0.00 0.00 0.00 27 1029.9
20210417121027 63 23 2.0 0.0 0.00 0.00 0.00 28 1030.0
20210417115540 62 349 1.0 0.0 0.00 0.00 0.00 27 1030.1
20210417114023 62 99 0.0 0.0 0.00 0.00 0.00 28 1030.2
20210417113117 61 360 2.0 0.0 0.00 0.00 0.00 28 1030.3
20210417112402 61 88 1.0 0.0 0.00 0.00 0.00 27 1030.3
20210417111025 61 65 1.0 0.0 0.00 0.00 0.00 28 1030.5
20210417110036 61 17 2.0 0.0 0.00 0.00 0.00 29 1030.4
20210417105309 60 82 1.0 0.0 0.00 0.00 0.00 29 1030.4
20210417104042 60 85 1.0 0.0 0.00 0.00 0.00 28 1030.6
20210417103135 60 121 1.0 0.0 0.00 0.00 0.00 30 1030.7
20210417102152 60 92 1.0 0.0 0.00 0.00 0.00 31 1030.7
20210417101032 59 90 1.0 0.0 0.00 0.00 0.00 30 1030.7
20210417100049 59 100 0.0 0.0 0.00 0.00 0.00 28 1030.8
20210417095128 60 353 0.0 0.0 0.00 0.00 0.00 30 1030.8
20210417094039 59 86 2.0 0.0 0.00 0.00 0.00 28 1030.9
20210417093042 59 4 2.0 0.0 0.00 0.00 0.00 30 1031.1
20210417092149 59 41 0.0 0.0 0.00 0.00 0.00 28 1031.1
20210417091023 59 32 1.0 0.0 0.00 0.00 0.00 30 1031.2